CDT,Max TemperatureF,Mean TemperatureF,Min TemperatureF,Max Dew PointF,MeanDew PointF,Min DewpointF,Max Humidity, Mean Humidity, Min Humidity, Max Sea Level PressureIn, Mean Sea Level PressureIn, Min Sea Level PressureIn, Max VisibilityMiles, Mean VisibilityMiles, Min VisibilityMiles, Max Wind SpeedMPH, Mean Wind SpeedMPH, Max Gust SpeedMPH,PrecipitationIn, CloudCover, Events, WindDirDegrees
2013-3-1,23,22,21,19,18,14,86,82,74,30.21,30.15,30.08,10,9,5,15,11,23,0.00,8,Snow,341
2013-3-2,21,14,8,14,11,7,92,80,68,30.20,30.18,30.15,10,10,10,12,8,,0.00,3,,318
2013-3-3,24,14,3,9,3,-6,100,72,26,30.15,30.11,30.07,10,10,10,9,1,,0.00,0,,312
2013-3-4,30,18,5,23,14,1,92,80,64,30.12,30.08,30.04,10,10,7,14,3,,0.00,4,Snow,77
2013-3-5,30,27,24,27,24,21,100,84,69,30.03,29.96,29.87,10,7,0,17,10,25,0.00,8,Snow,40
2013-3-6,30,27,24,25,23,21,93,85,80,30.29,30.20,30.04,10,9,2,15,11,22,0.00,8,,313
2013-3-7,32,24,17,23,19,14,100,80,55,30.43,30.37,30.29,10,10,7,12,6,,0.00,4,,296
2013-3-8,37,24,12,27,20,10,100,84,65,30.46,30.40,30.29,10,8,4,10,3,,0.00,1,,141
2013-3-9,35,32,30,32,28,23,93,83,75,30.29,30.05,29.82,10,9,3,18,7,17,0.00,5,Rain,138
2013-3-10,41,37,33,41,35,32,100,98,93,29.82,29.74,29.61,7,3,0,16,4,23,0.05,8,Fog-Rain,117
2013-3-11,35,32,30,36,32,27,100,98,86,29.72,29.61,29.52,10,3,0,16,6,23,0.00,8,Fog-Rain-Snow,258
2013-3-12,28,26,24,27,23,19,100,83,69,29.97,29.85,29.74,10,8,2,17,13,22,0.00,8,Snow,277
2013-3-13,28,22,17,19,12,9,86,65,43,30.28,30.15,29.98,10,10,2,21,13,29,0.00,2,Snow,290
2013-3-14,33,25,17,27,17,9,93,72,47,30.29,30.20,30.05,10,9,5,9,5,,0.00,2,,248
2013-3-15,33,30,28,30,28,25,100,92,80,30.04,29.92,29.80,10,6,2,16,7,22,0.00,4,Rain-Snow,307
2013-3-16,28,24,21,27,22,18,100,85,69,30.12,29.93,29.79,10,8,3,16,11,23,0.00,7,Snow,345
2013-3-17,28,22,17,23,15,9,80,71,63,30.24,30.14,30.02,10,10,10,14,10,23,0.00,1,,33
2013-3-18,30,24,17,30,23,10,100,85,73,30.01,29.78,29.57,10,7,1,24,13,34,0.00,7,Rain-Snow,133
2013-3-19,26,18,10,12,9,7,86,70,47,30.01,29.83,29.69,10,9,5,26,18,40,0.00,4,Snow,263
2013-3-20,19,14,8,9,4,0,73,64,58,30.03,30.01,29.99,10,10,10,18,14,30,0.00,1,,285
2013-3-21,24,16,8,12,6,1,79,69,54,30.02,30.00,29.98,10,10,10,15,9,,0.00,0,,283
2013-3-22,30,21,12,16,11,7,86,68,47,30.07,30.03,30.00,10,10,10,9,5,,0.00,0,,291
2013-3-23,35,26,17,23,18,14,93,76,48,30.13,30.08,30.04,10,10,10,10,2,,0.00,3,,51
2013-3-24,32,30,28,28,24,21,93,81,69,30.05,29.90,29.75,10,8,1,17,8,26,0.00,8,Snow,32
2013-3-25,32,29,26,27,23,21,93,81,69,30.08,29.89,29.76,10,10,3,18,13,25,0.00,8,Snow,340
2013-3-26,37,32,28,27,25,23,80,76,65,30.23,30.15,30.08,10,10,10,15,7,20,0.00,7,,308
2013-3-27,37,32,28,25,22,18,75,64,45,30.30,30.27,30.23,10,10,10,14,7,,0.00,5,,279
2013-3-28,42,34,26,23,20,18,74,63,42,30.33,30.30,30.29,10,10,10,12,5,,0.00,0,,281
2013-3-29,46,34,23,25,21,18,93,67,37,30.32,30.28,30.24,10,10,10,9,1,,0.00,0,,282
2013-3-30,53,42,30,39,28,19,93,66,46,30.23,30.05,29.81,10,10,7,14,6,21,0.00,4,Rain,197
2013-3-31,48,39,30,39,33,19,100,83,57,29.89,29.78,29.70,10,7,2,23,10,34,0.00,6,Rain,278